| time (UTC) | temp F | wind direction | speed MPH | gust MPH | rain 1hr in | rain 24hr in | rain mn in | humidity % | barometer mb |
| 20260507161618 | 65 | 135 | 4.0 | 6.0 | 0.00 | 0.00 | 0.00 | ||
| 20260507161216 | 65 | 136 | 6.0 | 9.0 | 0.00 | 0.00 | 0.00 | ||
| 20260507160815 | 66 | 139 | 5.0 | 8.0 | 0.00 | 0.00 | 0.00 | ||
| 20260507160412 | 66 | 138 | 6.0 | 9.0 | 0.00 | 0.00 | 0.00 | ||
| 20260507155610 | 66 | 136 | 6.0 | 10.0 | 0.00 | 0.00 | 0.00 | ||
| 20260507155208 | 66 | 135 | 5.0 | 8.0 | 0.00 | 0.00 | 0.00 | ||
| 20260507154759 | 67 | 126 | 7.0 | 10.0 | 0.00 | 0.00 | 0.00 | ||
| 20260507154357 | 68 | 139 | 4.0 | 7.0 | 0.00 | 0.00 | 0.00 | ||
| 20260507153956 | 69 | 175 | 4.0 | 6.0 | 0.00 | 0.00 | 0.00 | ||
| 20260507153555 | 69 | 202 | 4.0 | 6.0 | 0.00 | 0.00 | 0.00 | ||
| 20260507153152 | 69 | 202 | 4.0 | 6.0 | 0.00 | 0.00 | 0.00 | ||
| 20260507152751 | 68 | 202 | 5.0 | 8.0 | 0.00 | 0.00 | 0.00 | ||
| 20260507152349 | 68 | 202 | 6.0 | 10.0 | 0.00 | 0.00 | 0.00 | ||
| 20260507151948 | 69 | 202 | 5.0 | 8.0 | 0.00 | 0.00 | 0.00 | ||
| 20260507151546 | 68 | 211 | 6.0 | 10.0 | 0.00 | 0.00 | 0.00 | ||
| 20260507151144 | 68 | 222 | 5.0 | 8.0 | 0.00 | 0.00 | 0.00 | ||
| 20260507150736 | 68 | 218 | 5.0 | 11.0 | 0.00 | 0.00 | 0.00 | ||
| 20260507150335 | 68 | 220 | 5.0 | 8.0 | 0.00 | 0.00 | 0.00 | ||
| 20260507145934 | 68 | 216 | 6.0 | 11.0 | 0.00 | 0.00 | 0.00 | ||
| 20260507145532 | 69 | 213 | 5.0 | 9.0 | 0.00 | 0.00 | 0.00 | ||
| 20260507145130 | 69 | 230 | 3.0 | 7.0 | 0.00 | 0.00 | 0.00 | ||
| 20260507144729 | 69 | 221 | 5.0 | 9.0 | 0.00 | 0.00 | 0.00 | ||
| 20260507144327 | 69 | 225 | 5.0 | 8.0 | 0.00 | 0.00 | 0.00 | ||
| 20260507143925 | 69 | 234 | 5.0 | 9.0 | 0.00 | 0.00 | 0.00 | ||
| 20260507143524 | 69 | 233 | 6.0 | 9.0 | 0.00 | 0.00 | 0.00 | ||
| 20260507143122 | 69 | 230 | 4.0 | 7.0 | 0.00 | 0.00 | 0.00 | ||
| 20260507142714 | 69 | 240 | 4.0 | 8.0 | 0.00 | 0.00 | 0.00 | ||
| 20260507142311 | 69 | 228 | 4.0 | 9.0 | 0.00 | 0.00 | 0.00 | ||
| 20260507141509 | 69 | 224 | 6.0 | 10.0 | 0.00 | 0.00 | 0.00 | ||
| 20260507141107 | 69 | 215 | 6.0 | 10.0 | 0.00 | 0.00 | 0.00 | ||
| 20260507140705 | 69 | 202 | 4.0 | 7.0 | 0.00 | 0.00 | 0.00 | ||
| 20260507140303 | 70 | 221 | 3.0 | 6.0 | 0.00 | 0.00 | 0.00 | ||
| 20260507135902 | 69 | 225 | 3.0 | 6.0 | 0.00 | 0.00 | 0.00 | ||
| 20260507135059 | 69 | 225 | 3.0 | 6.0 | 0.00 | 0.00 | 0.00 | ||
| 20260507134650 | 68 | 219 | 3.0 | 8.0 | 0.00 | 0.00 | 0.00 | ||
| 20260507134248 | 69 | 212 | 6.0 | 10.0 | 0.00 | 0.00 | 0.00 | ||
| 20260507133847 | 68 | 224 | 5.0 | 8.0 | 0.00 | 0.00 | 0.00 | ||
| 20260507133446 | 68 | 242 | 8.0 | 13.0 | 0.00 | 0.00 | 0.00 | ||
| 20260507133043 | 69 | 218 | 10.0 | 14.0 | 0.00 | 0.00 | 0.00 | ||
| 20260507132642 | 70 | 222 | 6.0 | 9.0 | 0.00 | 0.00 | 0.00 | ||
| 20260507132240 | 70 | 241 | 6.0 | 11.0 | 0.00 | 0.00 | 0.00 | ||
| 20260507131840 | 70 | 245 | 7.0 | 9.0 | 0.00 | 0.00 | 0.00 | ||
| 20260507131437 | 70 | 255 | 5.0 | 9.0 | 0.00 | 0.00 | 0.00 | ||
| 20260507131035 | 71 | 246 | 6.0 | 10.0 | 0.00 | 0.00 | 0.00 | ||
| 20260507130627 | 71 | 237 | 8.0 | 11.0 | 0.00 | 0.00 | 0.00 | ||
| 20260507130226 | 71 | 241 | 5.0 | 7.0 | 0.00 | 0.00 | 0.00 | ||
| 20260507125824 | 70 | 253 | 6.0 | 9.0 | 0.00 | 0.00 | 0.00 | ||
| 20260507125422 | 71 | 226 | 6.0 | 10.0 | 0.00 | 0.00 | 0.00 | ||
| 20260507125021 | 71 | 256 | 6.0 | 10.0 | 0.00 | 0.00 | 0.00 | ||
| 20260507124620 | 70 | 244 | 8.0 | 10.0 | 0.00 | 0.00 | 0.00 | ||
| 20260507124218 | 71 | 222 | 5.0 | 9.0 | 0.00 | 0.00 | 0.00 | ||
| 20260507123816 | 70 | 223 | 5.0 | 7.0 | 0.00 | 0.00 | 0.00 | ||
| 20260507123415 | 70 | 262 | 7.0 | 13.0 | 0.00 | 0.00 | 0.00 | ||
| 20260507123013 | 70 | 277 | 9.0 | 13.0 | 0.00 | 0.00 | 0.00 | ||
| 20260507122605 | 70 | 262 | 7.0 | 11.0 | 0.00 | 0.00 | 0.00 | ||
| 20260507122202 | 71 | 269 | 8.0 | 12.0 | 0.00 | 0.00 | 0.00 | ||
| 20260507121801 | 71 | 270 | 8.0 | 12.0 | 0.00 | 0.00 | 0.00 | ||
| 20260507121400 | 71 | 261 | 6.0 | 10.0 | 0.00 | 0.00 | 0.00 | ||
| 20260507120958 | 71 | 271 | 6.0 | 9.0 | 0.00 | 0.00 | 0.00 | ||
| 20260507120556 | 70 | 288 | 8.0 | 11.0 | 0.00 | 0.00 | 0.00 | ||
| 20260507120154 | 71 | 272 | 7.0 | 10.0 | 0.00 | 0.00 | 0.00 | ||
| 20260507115753 | 71 | 273 | 8.0 | 14.0 | 0.00 | 0.00 | 0.00 | ||
| 20260507115352 | 71 | 258 | 6.0 | 11.0 | 0.00 | 0.00 | 0.00 | ||
| 20260507114949 | 71 | 228 | 7.0 | 12.0 | 0.00 | 0.00 | 0.00 | ||
| 20260507114541 | 71 | 240 | 8.0 | 13.0 | 0.00 | 0.00 | 0.00 | ||
| 20260507114139 | 71 | 232 | 6.0 | 10.0 | 0.00 | 0.00 | 0.00 | ||
| 20260507113738 | 71 | 263 | 4.0 | 8.0 | 0.00 | 0.00 | 0.00 | ||
| 20260507113337 | 70 | 246 | 6.0 | 10.0 | 0.00 | 0.00 | 0.00 | ||
| 20260507112934 | 70 | 228 | 9.0 | 16.0 | 0.00 | 0.00 | 0.00 | ||
| 20260507112533 | 71 | 247 | 7.0 | 11.0 | 0.00 | 0.00 | 0.00 | ||
| 20260507112131 | 71 | 243 | 7.0 | 11.0 | 0.00 | 0.00 | 0.00 | ||
| 20260507111730 | 70 | 260 | 8.0 | 13.0 | 0.00 | 0.00 | 0.00 | ||
| 20260507111328 | 70 | 244 | 10.0 | 13.0 | 0.00 | 0.00 | 0.00 | ||
| 20260507110926 | 72 | 259 | 4.0 | 7.0 | 0.00 | 0.00 | 0.00 | ||
| 20260507110518 | 72 | 249 | 5.0 | 9.0 | 0.00 | 0.00 | 0.00 | ||
| 20260507110117 | 71 | 271 | 6.0 | 9.0 | 0.00 | 0.00 | 0.00 | ||
| 20260507105313 | 71 | 246 | 8.0 | 11.0 | 0.00 | 0.00 | 0.00 | ||
| 20260507104912 | 71 | 271 | 10.0 | 12.0 | 0.00 | 0.00 | 0.00 | ||
| 20260507104511 | 72 | 255 | 7.0 | 14.0 | 0.00 | 0.00 | 0.00 | ||
| 20260507104108 | 71 | 259 | 8.0 | 11.0 | 0.00 | 0.00 | 0.00 | ||
| 20260507103707 | 71 | 281 | 8.0 | 13.0 | 0.00 | 0.00 | 0.00 | ||
| 20260507103306 | 71 | 254 | 8.0 | 11.0 | 0.00 | 0.00 | 0.00 | ||
| 20260507102904 | 71 | 242 | 9.0 | 14.0 | 0.00 | 0.00 | 0.00 | ||
| 20260507102456 | 72 | 261 | 6.0 | 8.0 | 0.00 | 0.00 | 0.00 | ||
| 20260507102053 | 71 | 272 | 6.0 | 10.0 | 0.00 | 0.00 | 0.00 | ||
| 20260507101652 | 70 | 250 | 8.0 | 12.0 | 0.00 | 0.00 | 0.00 | ||
| 20260507101251 | 70 | 263 | 6.0 | 10.0 | 0.00 | 0.00 | 0.00 | ||
| 20260507100849 | 70 | 260 | 8.0 | 15.0 | 0.00 | 0.00 | 0.00 | ||
| 20260507100447 | 69 | 268 | 6.0 | 9.0 | 0.00 | 0.00 | 0.00 | ||
| 20260507100045 | 70 | 258 | 7.0 | 12.0 | 0.00 | 0.00 | 0.00 | ||
| 20260507095644 | 69 | 291 | 8.0 | 10.0 | 0.00 | 0.00 | 0.00 | ||
| 20260507095243 | 69 | 265 | 5.0 | 9.0 | 0.00 | 0.00 | 0.00 | ||
| 20260507094840 | 69 | 283 | 10.0 | 14.0 | 0.00 | 0.00 | 0.00 | ||
| 20260507094432 | 69 | 260 | 8.0 | 12.0 | 0.00 | 0.00 | 0.00 | ||
| 20260507094030 | 69 | 254 | 9.0 | 12.0 | 0.00 | 0.00 | 0.00 | ||
| 20260507093629 | 69 | 281 | 6.0 | 10.0 | 0.00 | 0.00 | 0.00 | ||
| 20260507093227 | 69 | 265 | 7.0 | 10.0 | 0.00 | 0.00 | 0.00 | ||
| 20260507092825 | 69 | 263 | 8.0 | 11.0 | 0.00 | 0.00 | 0.00 | ||
| 20260507092431 | 69 | 249 | 7.0 | 10.0 | 0.00 | 0.00 | 0.00 | ||
| 20260507092424 | 69 | 249 | 7.0 | 10.0 | 0.00 | 0.00 | 0.00 | ||
| 20260507092023 | 70 | 252 | 5.0 | 7.0 | 0.00 | 0.00 | 0.00 | ||
| 20260507091622 | 70 | 248 | 5.0 | 8.0 | 0.00 | 0.00 | 0.00 | ||
| 20260507091219 | 69 | 260 | 8.0 | 10.0 | 0.00 | 0.00 | 0.00 | ||
| 20260507090818 | 70 | 262 | 6.0 | 12.0 | 0.00 | 0.00 | 0.00 | ||
| 20260507090410 | 70 | 256 | 4.0 | 8.0 | 0.00 | 0.00 | 0.00 | ||
| 20260507090008 | 70 | 254 | 6.0 | 9.0 | 0.00 | 0.00 | 0.00 | ||
| 20260507085606 | 69 | 236 | 9.0 | 12.0 | 0.00 | 0.00 | 0.00 | ||
| 20260507085205 | 69 | 248 | 7.0 | 10.0 | 0.00 | 0.00 | 0.00 | ||
| 20260507084803 | 69 | 236 | 8.0 | 11.0 | 0.00 | 0.00 | 0.00 | ||
| 20260507084402 | 69 | 261 | 7.0 | 12.0 | 0.00 | 0.00 | 0.00 | ||
| 20260507083959 | 69 | 251 | 4.0 | 6.0 | 0.00 | 0.00 | 0.00 | ||
| 20260507083558 | 68 | 270 | 8.0 | 12.0 | 0.00 | 0.00 | 0.00 | ||
| 20260507083157 | 69 | 241 | 5.0 | 10.0 | 0.00 | 0.00 | 0.00 | ||
| 20260507082755 | 69 | 214 | 9.0 | 16.0 | 0.00 | 0.00 | 0.00 | ||
| 20260507082346 | 68 | 224 | 8.0 | 12.0 | 0.00 | 0.00 | 0.00 | ||
| 20260507081944 | 68 | 229 | 9.0 | 13.0 | 0.00 | 0.00 | 0.00 | ||
| 20260507081543 | 69 | 235 | 7.0 | 12.0 | 0.00 | 0.00 | 0.00 | ||
| 20260507081142 | 68 | 233 | 5.0 | 10.0 | 0.00 | 0.00 | 0.00 | ||
| 20260507080740 | 68 | 240 | 10.0 | 14.0 | 0.00 | 0.00 | 0.00 | ||
| 20260507080338 | 68 | 242 | 7.0 | 11.0 | 0.00 | 0.00 | 0.00 | ||
| 20260507075936 | 68 | 264 | 4.0 | 9.0 | 0.00 | 0.00 | 0.00 | ||
| 20260507075535 | 67 | 282 | 5.0 | 9.0 | 0.00 | 0.00 | 0.00 | ||
| 20260507075135 | 68 | 266 | 7.0 | 9.0 | 0.00 | 0.00 | 0.00 | ||
| 20260507074731 | 68 | 275 | 3.0 | 6.0 | 0.00 | 0.00 | 0.00 | ||
| 20260507074324 | 68 | 277 | 5.0 | 10.0 | 0.00 | 0.00 | 0.00 | ||
| 20260507073922 | 66 | 276 | 5.0 | 7.0 | 0.00 | 0.00 | 0.00 | ||
| 20260507073521 | 66 | 252 | 4.0 | 9.0 | 0.00 | 0.00 | 0.00 | ||
| 20260507073119 | 66 | 260 | 9.0 | 12.0 | 0.00 | 0.00 | 0.00 | ||
| 20260507072717 | 65 | 285 | 7.0 | 10.0 | 0.00 | 0.00 | 0.00 | ||
| 20260507072316 | 66 | 269 | 6.0 | 10.0 | 0.00 | 0.00 | 0.00 | ||
| 20260507071914 | 66 | 256 | 8.0 | 11.0 | 0.00 | 0.00 | 0.00 | ||
| 20260507071512 | 66 | 263 | 8.0 | 10.0 | 0.00 | 0.00 | 0.00 | ||
| 20260507071111 | 65 | 264 | 9.0 | 14.0 | 0.00 | 0.00 | 0.00 | ||
| 20260507070709 | 66 | 267 | 11.0 | 17.0 | 0.00 | 0.00 | 0.00 | ||
| 20260507070301 | 69 | 235 | 5.0 | 9.0 | 0.00 | 0.00 | 0.00 | ||
| 20260507065859 | 67 | 250 | 5.0 | 8.0 | 0.00 | 0.00 | 0.00 | ||
| 20260507065457 | 66 | 255 | 7.0 | 10.0 | 0.00 | 0.00 | 0.00 | ||
| 20260507065056 | 67 | 256 | 6.0 | 11.0 | 0.00 | 0.00 | 0.00 | ||
| 20260507064654 | 66 | 253 | 6.0 | 8.0 | 0.00 | 0.00 | 0.00 | ||
| 20260507064253 | 66 | 262 | 7.0 | 10.0 | 0.00 | 0.00 | 0.00 | ||
| 20260507063850 | 66 | 268 | 6.0 | 9.0 | 0.00 | 0.00 | 0.00 | ||
| 20260507063449 | 67 | 248 | 4.0 | 7.0 | 0.00 | 0.00 | 0.00 | ||
| 20260507063048 | 66 | 249 | 3.0 | 7.0 | 0.00 | 0.00 | 0.00 | ||
| 20260507062646 | 66 | 257 | 6.0 | 9.0 | 0.00 | 0.00 | 0.00 | ||
| 20260507062237 | 66 | 269 | 5.0 | 7.0 | 0.00 | 0.00 | 0.00 | ||
| 20260507061835 | 66 | 270 | 2.0 | 4.0 | 0.00 | 0.00 | 0.00 | ||
| 20260507061434 | 66 | 273 | 4.0 | 6.0 | 0.00 | 0.00 | 0.00 | ||
| 20260507061033 | 67 | 231 | 3.0 | 6.0 | 0.00 | 0.00 | 0.00 | ||
| 20260507060630 | 66 | 262 | 5.0 | 8.0 | 0.00 | 0.00 | 0.00 | ||
| 20260507060229 | 66 | 244 | 3.0 | 6.0 | 0.00 | 0.00 | 0.00 | ||
| 20260507055827 | 67 | 244 | 4.0 | 5.0 | 0.00 | 0.00 | 0.00 | ||
| 20260507055426 | 67 | 248 | 2.0 | 5.0 | 0.00 | 0.00 | 0.00 | ||
| 20260507055025 | 67 | 241 | 4.0 | 7.0 | 0.00 | 0.00 | 0.00 | ||
| 20260507054622 | 66 | 248 | 3.0 | 5.0 | 0.00 | 0.00 | 0.00 | ||
| 20260507054214 | 67 | 248 | 2.0 | 5.0 | 0.00 | 0.00 | 0.00 | ||
| 20260507053812 | 66 | 225 | 3.0 | 5.0 | 0.00 | 0.00 | 0.00 | ||
| 20260507053410 | 65 | 225 | 2.0 | 5.0 | 0.00 | 0.00 | 0.00 | ||
| 20260507053008 | 66 | 225 | 2.0 | 4.0 | 0.00 | 0.00 | 0.00 | ||
| 20260507052606 | 66 | 225 | 3.0 | 5.0 | 0.00 | 0.00 | 0.00 | ||
| 20260507052205 | 66 | 225 | 3.0 | 5.0 | 0.00 | 0.00 | 0.00 | ||
| 20260507051803 | 66 | 225 | 3.0 | 6.0 | 0.00 | 0.00 | 0.00 | ||
| 20260507051401 | 65 | 225 | 3.0 | 5.0 | 0.00 | 0.00 | 0.00 | ||
| 20260507051000 | 66 | 165 | 2.0 | 4.0 | 0.00 | 0.00 | 0.00 | ||
| 20260507050558 | 65 | 157 | 3.0 | 3.0 | 0.00 | 0.00 | 0.00 | ||
| 20260507050150 | 66 | 157 | 2.0 | 4.0 | 0.00 | 0.00 | 0.00 | ||
| 20260507045747 | 67 | 157 | 1.0 | 4.0 | 0.00 | 0.00 | 0.00 | ||
| 20260507045346 | 67 | 157 | 3.0 | 4.0 | 0.00 | 0.00 | 0.00 | ||
| 20260507044945 | 67 | 157 | 2.0 | 3.0 | 0.00 | 0.00 | 0.00 | ||
| 20260507044543 | 67 | 157 | 2.0 | 3.0 | 0.00 | 0.00 | 0.00 | ||
| 20260507044142 | 67 | 157 | 3.0 | 5.0 | 0.00 | 0.00 | 0.00 | ||
| 20260507043739 | 66 | 157 | 2.0 | 4.0 | 0.00 | 0.00 | 0.00 | ||
| 20260507043338 | 65 | 154 | 3.0 | 7.0 | 0.00 | 0.00 | 0.00 | ||
| 20260507042937 | 64 | 135 | 3.0 | 4.0 | 0.00 | 0.00 | 0.00 | ||
| 20260507042535 | 64 | 135 | 3.0 | 4.0 | 0.00 | 0.00 | 0.00 | ||
| 20260507042126 | 64 | 146 | 6.0 | 9.0 | 0.00 | 0.00 | 0.00 | ||
| 20260507041724 | 64 | 135 | 2.0 | 5.0 | 0.00 | 0.00 | 0.00 | ||
| 20260507041323 | 63 | 135 | 3.0 | 4.0 | 0.00 | 0.00 | 0.00 | ||
| 20260507040922 | 63 | 202 | 4.0 | 6.0 | 0.00 | 0.00 | 0.00 | ||
| 20260507040519 | 61 | 67 | 1.0 | 2.0 | 0.00 | 0.00 | 0.00 | ||
| 20260507040118 | 61 | 67 | 0.0 | 1.0 | 0.00 | 0.00 | 0.00 | ||
| 20260507035716 | 61 | 67 | 0.0 | 0.0 | 0.00 | 0.00 | 0.00 | ||
| 20260507035315 | 61 | 67 | 2.0 | 4.0 | 0.00 | 0.00 | 0.00 | ||
| 20260507034913 | 61 | 21 | 5.0 | 7.0 | 0.00 | 0.00 | 0.00 | ||
| 20260507034511 | 61 | 7 | 4.0 | 5.0 | 0.00 | 0.00 | 0.00 | ||
| 20260507034103 | 61 | 45 | 4.0 | 6.0 | 0.00 | 0.00 | 0.00 | ||
| 20260507033701 | 61 | 45 | 4.0 | 6.0 | 0.00 | 0.00 | 0.00 | ||
| 20260507033300 | 61 | 29 | 7.0 | 8.0 | 0.00 | 0.00 | 0.00 | ||
| 20260507032858 | 61 | 45 | 2.0 | 4.0 | 0.00 | 0.00 | 0.00 | ||
| 20260507032456 | 61 | 41 | 3.0 | 7.0 | 0.00 | 0.00 | 0.00 | ||
| 20260507032055 | 61 | 14 | 5.0 | 8.0 | 0.00 | 0.00 | 0.00 | ||
| 20260507031653 | 61 | 0 | 5.0 | 7.0 | 0.00 | 0.00 | 0.00 | ||
| 20260507031251 | 61 | 135 | 2.0 | 4.0 | 0.00 | 0.00 | 0.00 | ||
| 20260507030850 | 61 | 135 | 3.0 | 4.0 | 0.00 | 0.00 | 0.00 | ||
| 20260507030448 | 62 | 135 | 1.0 | 3.0 | 0.00 | 0.00 | 0.00 | ||
| 20260507030040 | 62 | 135 | 0.0 | 0.0 | 0.00 | 0.00 | 0.00 | ||
| 20260507025638 | 62 | 135 | 0.0 | 1.0 | 0.00 | 0.00 | 0.00 | ||
| 20260507025236 | 63 | 135 | 2.0 | 4.0 | 0.00 | 0.00 | 0.00 | ||
| 20260507024835 | 63 | 135 | 3.0 | 6.0 | 0.00 | 0.00 | 0.00 | ||
| 20260507024434 | 64 | 145 | 3.0 | 4.0 | 0.00 | 0.00 | 0.00 | ||
| 20260507024031 | 64 | 157 | 1.0 | 4.0 | 0.00 | 0.00 | 0.00 | ||
| 20260507023630 | 65 | 157 | 2.0 | 4.0 | 0.00 | 0.00 | 0.00 | ||
| 20260507023228 | 65 | 157 | 4.0 | 6.0 | 0.00 | 0.00 | 0.00 | ||
| 20260507022828 | 65 | 157 | 3.0 | 6.0 | 0.00 | 0.00 | 0.00 | ||
| 20260507022425 | 65 | 157 | 3.0 | 6.0 | 0.00 | 0.00 | 0.00 | ||
| 20260507022016 | 65 | 151 | 5.0 | 9.0 | 0.00 | 0.00 | 0.00 | ||
| 20260507021614 | 65 | 137 | 3.0 | 7.0 | 0.00 | 0.00 | 0.00 | ||
| 20260507021213 | 65 | 151 | 4.0 | 8.0 | 0.00 | 0.00 | 0.00 | ||
| 20260507020812 | 65 | 136 | 4.0 | 7.0 | 0.00 | 0.00 | 0.00 | ||
| 20260507020409 | 65 | 157 | 3.0 | 7.0 | 0.00 | 0.00 | 0.00 | ||
| 20260507020009 | 65 | 153 | 3.0 | 6.0 | 0.00 | 0.00 | 0.00 | ||
| 20260507015606 | 65 | 152 | 4.0 | 8.0 | 0.00 | 0.00 | 0.00 | ||
| 20260507015205 | 65 | 157 | 5.0 | 8.0 | 0.00 | 0.00 | 0.00 | ||
| 20260507014803 | 65 | 157 | 4.0 | 9.0 | 0.00 | 0.00 | 0.00 | ||
| 20260507014401 | 65 | 158 | 6.0 | 9.0 | 0.00 | 0.00 | 0.00 | ||
| 20260507013954 | 65 | 167 | 9.0 | 12.0 | 0.00 | 0.00 | 0.00 | ||
| 20260507013552 | 66 | 171 | 10.0 | 14.0 | 0.00 | 0.00 | 0.00 | ||
| 20260507013150 | 66 | 172 | 9.0 | 13.0 | 0.00 | 0.00 | 0.00 | ||
| 20260507012749 | 66 | 175 | 7.0 | 10.0 | 0.00 | 0.00 | 0.00 | ||
| 20260507012347 | 66 | 186 | 14.0 | 19.0 | 0.00 | 0.00 | 0.00 | ||
| 20260507011946 | 66 | 182 | 14.0 | 20.0 | 0.00 | 0.00 | 0.00 | ||
| 20260507011544 | 66 | 176 | 11.0 | 15.0 | 0.00 | 0.00 | 0.00 | ||
| 20260507011142 | 66 | 164 | 10.0 | 12.0 | 0.00 | 0.00 | 0.00 | ||
| 20260507010741 | 66 | 182 | 11.0 | 15.0 | 0.00 | 0.00 | 0.00 | ||
| 20260507010339 | 66 | 182 | 12.0 | 16.0 | 0.00 | 0.00 | 0.00 | ||
| 20260507005931 | 66 | 199 | 12.0 | 17.0 | 0.00 | 0.00 | 0.00 | ||
| 20260507005528 | 66 | 200 | 14.0 | 22.0 | 0.00 | 0.00 | 0.00 | ||
| 20260507005127 | 66 | 197 | 8.0 | 11.0 | 0.00 | 0.00 | 0.00 | ||
| 20260507004725 | 66 | 203 | 7.0 | 11.0 | 0.00 | 0.00 | 0.00 | ||
| 20260507004323 | 67 | 227 | 5.0 | 9.0 | 0.00 | 0.00 | 0.00 | ||
| 20260507003920 | 66 | 194 | 8.0 | 13.0 | 0.00 | 0.00 | 0.00 | ||
| 20260507003519 | 66 | 162 | 7.0 | 8.0 | 0.00 | 0.00 | 0.00 | ||
| 20260507003118 | 66 | 174 | 8.0 | 12.0 | 0.00 | 0.00 | 0.00 | ||
| 20260507002717 | 66 | 186 | 12.0 | 22.0 | 0.00 | 0.00 | 0.00 | ||
| 20260507002313 | 66 | 163 | 11.0 | 16.0 | 0.00 | 0.00 | 0.00 | ||
| 20260507001906 | 66 | 157 | 12.0 | 17.0 | 0.00 | 0.00 | 0.00 | ||
| 20260507001504 | 66 | 152 | 10.0 | 15.0 | 0.00 | 0.00 | 0.00 | ||
| 20260507001103 | 66 | 148 | 9.0 | 13.0 | 0.00 | 0.00 | 0.00 | ||
| 20260507000702 | 67 | 158 | 8.0 | 12.0 | 0.00 | 0.00 | 0.00 | ||
| 20260507000259 | 67 | 178 | 8.0 | 12.0 | 0.00 | 0.00 | 0.00 | ||
| 20260506235858 | 67 | 200 | 9.0 | 12.0 | 0.00 | 0.00 | 0.00 | ||
| 20260506235456 | 68 | 203 | 11.0 | 18.0 | 0.00 | 0.00 | 0.00 | ||
| 20260506235055 | 67 | 181 | 9.0 | 16.0 | 0.00 | 0.00 | 0.00 | ||
| 20260506234653 | 67 | 198 | 7.0 | 11.0 | 0.00 | 0.00 | 0.00 | ||
| 20260506234251 | 67 | 196 | 8.0 | 14.0 | 0.00 | 0.00 | 0.00 | ||
| 20260506233843 | 68 | 202 | 4.0 | 7.0 | 0.00 | 0.00 | 0.00 | ||
| 20260506233441 | 68 | 168 | 8.0 | 10.0 | 0.00 | 0.00 | 0.00 | ||
| 20260506233039 | 68 | 194 | 10.0 | 19.0 | 0.00 | 0.00 | 0.00 | ||
| 20260506232638 | 68 | 198 | 7.0 | 10.0 | 0.00 | 0.00 | 0.00 | ||
| 20260506232236 | 68 | 202 | 5.0 | 8.0 | 0.00 | 0.00 | 0.00 | ||
| 20260506231835 | 68 | 188 | 3.0 | 5.0 | 0.00 | 0.00 | 0.00 | ||
| 20260506231432 | 68 | 200 | 6.0 | 8.0 | 0.00 | 0.00 | 0.00 | ||
| 20260506231031 | 68 | 196 | 7.0 | 11.0 | 0.00 | 0.00 | 0.00 | ||
| 20260506230630 | 68 | 200 | 5.0 | 7.0 | 0.00 | 0.00 | 0.00 | ||
| 20260506230229 | 68 | 164 | 7.0 | 9.0 | 0.00 | 0.00 | 0.00 | ||
| 20260506225821 | 68 | 163 | 6.0 | 9.0 | 0.00 | 0.00 | 0.00 | ||
| 20260506225418 | 68 | 155 | 9.0 | 12.0 | 0.00 | 0.00 | 0.00 | ||
| 20260506225017 | 68 | 176 | 9.0 | 11.0 | 0.00 | 0.00 | 0.00 | ||
| 20260506224616 | 68 | 173 | 9.0 | 12.0 | 0.00 | 0.00 | 0.00 | ||
| 20260506224214 | 68 | 187 | 8.0 | 10.0 | 0.00 | 0.00 | 0.00 | ||
| 20260506223812 | 68 | 182 | 10.0 | 14.0 | 0.00 | 0.00 | 0.00 | ||
| 20260506223410 | 68 | 191 | 10.0 | 15.0 | 0.00 | 0.00 | 0.00 | ||
| 20260506223009 | 68 | 165 | 12.0 | 14.0 | 0.00 | 0.00 | 0.00 | ||
| 20260506222608 | 68 | 172 | 15.0 | 19.0 | 0.00 | 0.00 | 0.00 | ||
| 20260506222205 | 68 | 168 | 10.0 | 15.0 | 0.00 | 0.00 | 0.00 | ||
| 20260506221757 | 68 | 163 | 13.0 | 18.0 | 0.00 | 0.00 | 0.00 | ||
| 20260506221355 | 68 | 165 | 13.0 | 18.0 | 0.00 | 0.00 | 0.00 | ||
| 20260506220954 | 68 | 162 | 9.0 | 13.0 | 0.00 | 0.00 | 0.00 | ||
| 20260506220552 | 68 | 157 | 10.0 | 18.0 | 0.00 | 0.00 | 0.00 | ||
| 20260506220150 | 68 | 149 | 11.0 | 16.0 | 0.00 | 0.00 | 0.00 | ||
| 20260506215749 | 68 | 178 | 13.0 | 18.0 | 0.00 | 0.00 | 0.00 | ||
| 20260506215347 | 69 | 175 | 8.0 | 14.0 | 0.00 | 0.00 | 0.00 | ||
| 20260506214946 | 69 | 201 | 7.0 | 12.0 | 0.00 | 0.00 | 0.00 | ||
| 20260506214617 | 69 | 185 | 8.0 | 12.0 | 0.00 | 0.00 | 0.00 | ||
| 20260506214544 | 69 | 185 | 8.0 | 12.0 | 0.00 | 0.00 | 0.00 | ||
| 20260506214142 | 69 | 187 | 9.0 | 12.0 | 0.00 | 0.00 | 0.00 | ||
| 20260506213734 | 69 | 195 | 6.0 | 11.0 | 0.00 | 0.00 | 0.00 | ||
| 20260506213333 | 69 | 182 | 8.0 | 12.0 | 0.00 | 0.00 | 0.00 | ||
| 20260506212930 | 69 | 177 | 11.0 | 16.0 | 0.00 | 0.00 | 0.00 | ||
| 20260506212529 | 69 | 197 | 11.0 | 15.0 | 0.00 | 0.00 | 0.00 | ||
| 20260506212128 | 69 | 170 | 10.0 | 14.0 | 0.00 | 0.00 | 0.00 | ||
| 20260506211727 | 69 | 162 | 11.0 | 14.0 | 0.00 | 0.00 | 0.00 | ||
| 20260506210923 | 70 | 177 | 11.0 | 19.0 | 0.00 | 0.00 | 0.00 | ||
| 20260506210522 | 70 | 160 | 6.0 | 9.0 | 0.00 | 0.00 | 0.00 | ||
| 20260506210120 | 70 | 180 | 7.0 | 10.0 | 0.00 | 0.00 | 0.00 | ||
| 20260506205711 | 70 | 175 | 10.0 | 14.0 | 0.00 | 0.00 | 0.00 | ||
| 20260506204908 | 70 | 180 | 9.0 | 12.0 | 0.00 | 0.00 | 0.00 | ||
| 20260506204507 | 70 | 187 | 9.0 | 12.0 | 0.00 | 0.00 | 0.00 | ||
| 20260506204105 | 70 | 185 | 11.0 | 16.0 | 0.00 | 0.00 | 0.00 | ||
| 20260506203703 | 70 | 181 | 16.0 | 27.0 | 0.00 | 0.00 | 0.00 | ||
| 20260506203301 | 70 | 172 | 12.0 | 15.0 | 0.00 | 0.00 | 0.00 | ||
| 20260506202900 | 70 | 173 | 14.0 | 20.0 | 0.00 | 0.00 | 0.00 | ||
| 20260506202459 | 70 | 170 | 13.0 | 17.0 | 0.00 | 0.00 | 0.00 | ||
| 20260506202056 | 70 | 170 | 11.0 | 16.0 | 0.00 | 0.00 | 0.00 | ||
| 20260506201648 | 70 | 192 | 11.0 | 15.0 | 0.00 | 0.00 | 0.00 | ||
| 20260506201246 | 70 | 181 | 15.0 | 20.0 | 0.00 | 0.00 | 0.00 | ||
| 20260506200845 | 70 | 172 | 15.0 | 21.0 | 0.00 | 0.00 | 0.00 | ||
| 20260506200443 | 70 | 185 | 10.0 | 14.0 | 0.00 | 0.00 | 0.00 | ||
| 20260506200041 | 70 | 178 | 13.0 | 18.0 | 0.00 | 0.00 | 0.00 | ||
| 20260506195640 | 71 | 188 | 11.0 | 16.0 | 0.00 | 0.00 | 0.00 | ||
| 20260506195239 | 71 | 186 | 11.0 | 16.0 | 0.00 | 0.00 | 0.00 | ||
| 20260506194837 | 70 | 186 | 10.0 | 17.0 | 0.00 | 0.00 | 0.00 | ||
| 20260506194436 | 71 | 189 | 11.0 | 16.0 | 0.00 | 0.00 | 0.00 | ||
| 20260506193626 | 71 | 196 | 14.0 | 20.0 | 0.00 | 0.00 | 0.00 | ||
| 20260506193224 | 71 | 188 | 13.0 | 18.0 | 0.00 | 0.00 | 0.00 | ||
| 20260506192822 | 70 | 177 | 10.0 | 17.0 | 0.00 | 0.00 | 0.00 | ||
| 20260506192421 | 70 | 164 | 6.0 | 12.0 | 0.00 | 0.00 | 0.00 | ||
| 20260506192019 | 71 | 157 | 6.0 | 9.0 | 0.00 | 0.00 | 0.00 | ||
| 20260506191618 | 71 | 182 | 9.0 | 12.0 | 0.00 | 0.00 | 0.00 | ||
| 20260506191215 | 70 | 144 | 7.0 | 12.0 | 0.00 | 0.00 | 0.00 | ||
| 20260506190813 | 70 | 148 | 8.0 | 11.0 | 0.00 | 0.00 | 0.00 | ||
| 20260506190412 | 70 | 120 | 4.0 | 7.0 | 0.00 | 0.00 | 0.00 | ||
| 20260506190010 | 70 | 137 | 4.0 | 9.0 | 0.00 | 0.00 | 0.00 | ||
| 20260506185601 | 71 | 163 | 4.0 | 7.0 | 0.00 | 0.00 | 0.00 | ||
| 20260506185159 | 71 | 183 | 5.0 | 7.0 | 0.00 | 0.00 | 0.00 | ||
| 20260506184758 | 71 | 160 | 5.0 | 8.0 | 0.00 | 0.00 | 0.00 | ||
| 20260506184357 | 71 | 176 | 7.0 | 13.0 | 0.00 | 0.00 | 0.00 | ||
| 20260506183954 | 71 | 183 | 9.0 | 12.0 | 0.00 | 0.00 | 0.00 | ||
| 20260506183553 | 71 | 177 | 7.0 | 11.0 | 0.00 | 0.00 | 0.00 | ||
| 20260506183151 | 71 | 170 | 11.0 | 18.0 | 0.00 | 0.00 | 0.00 | ||
| 20260506182750 | 71 | 160 | 5.0 | 7.0 | 0.00 | 0.00 | 0.00 | ||
| 20260506182349 | 71 | 165 | 8.0 | 12.0 | 0.00 | 0.00 | 0.00 | ||
| 20260506181946 | 72 | 159 | 10.0 | 18.0 | 0.00 | 0.00 | 0.00 | ||
| 20260506181538 | 72 | 159 | 9.0 | 13.0 | 0.00 | 0.00 | 0.00 | ||
| 20260506181136 | 72 | 169 | 15.0 | 22.0 | 0.00 | 0.00 | 0.00 | ||
| 20260506180735 | 72 | 153 | 12.0 | 18.0 | 0.00 | 0.00 | 0.00 | ||
| 20260506180333 | 72 | 163 | 9.0 | 15.0 | 0.00 | 0.00 | 0.00 | ||
| 20260506175931 | 72 | 164 | 14.0 | 26.0 | 0.00 | 0.00 | 0.00 | ||
| 20260506175530 | 72 | 158 | 12.0 | 19.0 | 0.00 | 0.00 | 0.00 | ||
| 20260506175129 | 73 | 168 | 11.0 | 19.0 | 0.00 | 0.00 | 0.00 | ||
| 20260506174726 | 73 | 173 | 9.0 | 13.0 | 0.00 | 0.00 | 0.00 | ||
| 20260506174325 | 73 | 158 | 8.0 | 11.0 | 0.00 | 0.00 | 0.00 | ||
| 20260506173924 | 73 | 155 | 7.0 | 10.0 | 0.00 | 0.00 | 0.00 | ||
| 20260506173516 | 73 | 169 | 10.0 | 12.0 | 0.00 | 0.00 | 0.00 | ||
| 20260506173113 | 73 | 176 | 8.0 | 16.0 | 0.00 | 0.00 | 0.00 | ||
| 20260506172712 | 73 | 181 | 9.0 | 13.0 | 0.00 | 0.00 | 0.00 | ||
| 20260506172311 | 74 | 169 | 12.0 | 19.0 | 0.00 | 0.00 | 0.00 | ||
| 20260506171909 | 74 | 175 | 9.0 | 14.0 | 0.00 | 0.00 | 0.00 | ||
| 20260506171508 | 74 | 168 | 10.0 | 14.0 | 0.00 | 0.00 | 0.00 | ||
| 20260506171105 | 74 | 148 | 11.0 | 18.0 | 0.00 | 0.00 | 0.00 | ||
| 20260506170704 | 74 | 161 | 10.0 | 13.0 | 0.00 | 0.00 | 0.00 | ||
| 20260506170303 | 74 | 166 | 10.0 | 18.0 | 0.00 | 0.00 | 0.00 | ||
| 20260506165901 | 74 | 158 | 9.0 | 12.0 | 0.00 | 0.00 | 0.00 | ||
| 20260506165452 | 74 | 177 | 13.0 | 17.0 | 0.00 | 0.00 | 0.00 | ||
| 20260506165050 | 74 | 172 | 13.0 | 18.0 | 0.00 | 0.00 | 0.00 | ||
| 20260506164649 | 74 | 177 | 13.0 | 17.0 | 0.00 | 0.00 | 0.00 | ||
| 20260506164248 | 74 | 178 | 17.0 | 23.0 | 0.00 | 0.00 | 0.00 | ||
| 20260506163845 | 75 | 185 | 13.0 | 19.0 | 0.00 | 0.00 | 0.00 | ||
| 20260506163444 | 76 | 187 | 12.0 | 16.0 | 0.00 | 0.00 | 0.00 | ||
| 20260506163042 | 76 | 181 | 15.0 | 23.0 | 0.00 | 0.00 | 0.00 | ||
| 20260506162641 | 76 | 175 | 12.0 | 19.0 | 0.00 | 0.00 | 0.00 | ||
| 20260506162239 | 75 | 170 | 10.0 | 16.0 | 0.00 | 0.00 | 0.00 | ||
| 20260506161837 | 76 | 157 | 12.0 | 16.0 | 0.00 | 0.00 | 0.00 |